This is the latest recevied weather packets stored in our database for station/object N4ASP-13. If no packets are shown the sender has not sent any weather packets the latest 10 day(s).
| Time | Temp. | Humidity | Pressure | Rain* | Wind** | Luminosity | Snow |
|---|---|---|---|---|---|---|---|
| 1778347848 | 21.11° C | 66% | 1011.3 hPa | 0 mm | - | 311 W/m² | - |
| 1778347787 | 20.56° C | 67% | 1011.4 hPa | 0 mm | - | 316 W/m² | - |
| 1778347727 | 20.56° C | 67% | 1011.3 hPa | 0 mm | - | 1359 W/m² | - |
| 1778347666 | 20.56° C | 68% | 1011.4 hPa | 0 mm | - | 1359 W/m² | - |
| 1778347607 | 20.56° C | 69% | 1011.2 hPa | 0 mm | - | 1359 W/m² | - |
| 1778347543 | 20.56° C | 68% | 1011.2 hPa | 0 mm | - | 1359 W/m² | - |
| 1778347480 | 20.56° C | 68% | 1011.3 hPa | 0 mm | - | 1266 W/m² | - |
| 1778347420 | 20.56° C | 67% | 1011.2 hPa | 0 mm | - | 315 W/m² | - |
| 1778347359 | 20.56° C | 67% | 1011.2 hPa | 0 mm | - | 315 W/m² | - |
| 1778347296 | 20.56° C | 67% | 1011.2 hPa | 0 mm | - | 1334 W/m² | - |
| 1778347234 | 20.56° C | 67% | 1011.2 hPa | 0 mm | - | 1334 W/m² | - |
| 1778347174 | 20° C | 70% | 1011.3 hPa | 0 mm | - | 1269 W/m² | - |
| 1778347115 | 20° C | 68% | 1011.3 hPa | 0 mm | - | 1269 W/m² | - |
| 1778347051 | 20° C | 67% | 1011.3 hPa | 0 mm | - | 1269 W/m² | - |
| 1778346992 | 20° C | 70% | 1011.4 hPa | 0 mm | - | 1269 W/m² | - |
| 1778346932 | 20° C | 70% | 1011.3 hPa | 0 mm | - | 1352 W/m² | - |
| 1778346873 | 20° C | 70% | 1011.3 hPa | 0 mm | - | 1320 W/m² | - |
| 1778346811 | 20° C | 69% | 1011.3 hPa | 0 mm | - | 424 W/m² | - |
| 1778346749 | 20° C | 70% | 1011.4 hPa | 0 mm | - | 424 W/m² | - |
| 1778346691 | 20° C | 71% | 1011.3 hPa | 0 mm | - | 424 W/m² | - |
| 1778346629 | 20° C | 72% | 1011.4 hPa | 0 mm | - | 1162 W/m² | - |
| 1778346565 | 19.44° C | 72% | 1011.4 hPa | 0 mm | - | 1162 W/m² | - |
| 1778346506 | 19.44° C | 71% | 1011.4 hPa | 0 mm | - | 1162 W/m² | - |
| 1778346443 | 19.44° C | 71% | 1011.5 hPa | 0 mm | - | 373 W/m² | - |
| 1778346384 | 19.44° C | 68% | 1011.5 hPa | 0 mm | - | 373 W/m² | - |
* Rain latest hour (hover to see other rain measurements)
** Current wind speed in m/s (hover to see current wind gust speed)